Time,TemperatureF,DewpointF,PressureIn,WindDirection,WindDirectionDegrees,WindSpeedMPH,WindSpeedGustMPH,Humidity,HourlyPrecipIn,Conditions,Clouds,dailyrainin,SoftwareType,DateUTC
2013-04-18 00:03:00,61.1,60.0,30.17,SE,125,0.0,0.0,97,0.00,,,0.00,weatherlink.com 1.10,2013-04-18 04:03:00,
2013-04-18 00:18:00,61.1,61.0,30.17,SE,125,0.0,0.0,98,0.00,,,0.00,weatherlink.com 1.10,2013-04-18 04:18:00,
2013-04-18 00:33:00,60.8,60.0,30.17,SE,125,0.0,0.0,98,0.00,,,0.00,weatherlink.com 1.10,2013-04-18 04:33:00,
2013-04-18 00:48:00,60.5,60.0,30.17,SE,126,0.0,0.0,98,0.00,,,0.00,weatherlink.com 1.10,2013-04-18 04:48:00,
2013-04-18 01:03:00,60.4,60.0,30.18,SE,125,0.0,1.0,98,0.00,,,0.00,weatherlink.com 1.10,2013-04-18 05:03:00,
2013-04-18 01:18:00,60.1,60.0,30.17,SE,125,0.0,0.0,98,0.00,,,0.00,weatherlink.com 1.10,2013-04-18 05:18:00,
2013-04-18 01:33:00,59.9,59.0,30.17,SE,125,0.0,0.0,98,0.00,,,0.00,weatherlink.com 1.10,2013-04-18 05:33:00,
2013-04-18 01:48:00,59.7,59.0,30.16,SE,125,0.0,0.0,98,0.00,,,0.00,weatherlink.com 1.10,2013-04-18 05:48:00,
2013-04-18 02:03:00,59.6,59.0,30.15,SE,125,0.0,0.0,98,0.00,,,0.00,weatherlink.com 1.10,2013-04-18 06:03:00,
2013-04-18 02:18:00,59.4,59.0,30.14,SE,125,0.0,0.0,98,0.00,,,0.00,weatherlink.com 1.10,2013-04-18 06:18:00,
2013-04-18 02:33:00,59.6,59.0,30.14,SE,126,0.0,0.0,99,0.00,,,0.00,weatherlink.com 1.10,2013-04-18 06:33:00,
2013-04-18 02:48:00,59.6,59.0,30.14,SE,125,0.0,0.0,99,0.00,,,0.00,weatherlink.com 1.10,2013-04-18 06:48:00,
2013-04-18 03:03:00,59.5,59.0,30.13,SE,126,0.0,0.0,99,0.00,,,0.00,weatherlink.com 1.10,2013-04-18 07:03:00,
2013-04-18 03:19:00,59.4,59.0,30.12,SE,125,0.0,0.0,99,0.00,,,0.00,weatherlink.com 1.10,2013-04-18 07:19:00,
2013-04-18 03:34:00,59.5,59.0,30.13,SE,125,0.0,0.0,99,0.00,,,0.00,weatherlink.com 1.10,2013-04-18 07:34:00,
2013-04-18 03:49:00,59.6,59.0,30.12,SE,125,0.0,0.0,99,0.00,,,0.00,weatherlink.com 1.10,2013-04-18 07:49:00,
2013-04-18 04:04:00,59.5,59.0,30.12,SE,125,0.0,0.0,99,0.00,,,0.00,weatherlink.com 1.10,2013-04-18 08:04:00,
2013-04-18 04:19:00,59.7,60.0,30.12,SE,125,0.0,0.0,99,0.00,,,0.00,weatherlink.com 1.10,2013-04-18 08:19:00,
2013-04-18 04:34:00,59.9,60.0,30.12,SE,125,0.0,0.0,99,0.00,,,0.00,weatherlink.com 1.10,2013-04-18 08:34:00,
2013-04-18 04:49:00,60.2,60.0,30.12,SE,125,0.0,0.0,99,0.00,,,0.00,weatherlink.com 1.10,2013-04-18 08:49:00,
2013-04-18 05:04:00,60.2,60.0,30.13,SE,125,0.0,0.0,99,0.00,,,0.00,weatherlink.com 1.10,2013-04-18 09:04:00,
2013-04-18 05:19:00,60.4,60.0,30.13,SE,125,0.0,0.0,99,0.00,,,0.00,weatherlink.com 1.10,2013-04-18 09:19:00,
2013-04-18 05:34:00,60.5,60.0,30.13,SE,125,0.0,0.0,99,0.01,,,0.01,weatherlink.com 1.10,2013-04-18 09:34:00,
2013-04-18 05:49:00,60.5,60.0,30.14,SE,125,0.0,0.0,99,0.01,,,0.01,weatherlink.com 1.10,2013-04-18 09:49:00,
2013-04-18 06:04:00,60.3,60.0,30.14,SE,125,0.0,0.0,99,0.01,,,0.01,weatherlink.com 1.10,2013-04-18 10:04:00,
2013-04-18 06:19:00,60.0,60.0,30.14,SE,125,0.0,0.0,99,0.01,,,0.01,weatherlink.com 1.10,2013-04-18 10:19:00,
2013-04-18 06:34:00,60.1,60.0,30.14,SE,125,0.0,0.0,99,0.00,,,0.01,weatherlink.com 1.10,2013-04-18 10:34:00,
2013-04-18 06:49:00,60.6,60.0,30.15,SE,125,0.0,0.0,99,0.00,,,0.01,weatherlink.com 1.10,2013-04-18 10:49:00,
2013-04-18 07:04:00,60.9,61.0,30.15,SE,125,0.0,0.0,99,0.00,,,0.01,weatherlink.com 1.10,2013-04-18 11:04:00,
2013-04-18 07:19:00,61.6,61.0,30.16,SE,126,0.0,1.0,99,0.00,,,0.01,weatherlink.com 1.10,2013-04-18 11:19:00,
2013-04-18 07:34:00,62.9,63.0,30.16,ESE,118,1.0,1.0,100,0.00,,,0.01,weatherlink.com 1.10,2013-04-18 11:34:00,
2013-04-18 07:49:00,64.0,64.0,30.16,SSW,212,0.0,2.0,100,0.00,,,0.01,weatherlink.com 1.10,2013-04-18 11:49:00,
2013-04-18 08:04:00,65.4,65.0,30.16,SSW,212,0.0,1.0,100,0.00,,,0.01,weatherlink.com 1.10,2013-04-18 12:04:00,
2013-04-18 08:19:00,66.8,67.0,30.17,East,99,1.0,1.0,100,0.00,,,0.01,weatherlink.com 1.10,2013-04-18 12:19:00,
2013-04-18 08:34:00,67.7,68.0,30.16,ESE,105,0.0,2.0,100,0.00,,,0.01,weatherlink.com 1.10,2013-04-18 12:34:00,
2013-04-18 08:49:00,68.3,68.0,30.16,North,356,0.0,3.0,99,0.00,,,0.01,weatherlink.com 1.10,2013-04-18 12:49:00,
2013-04-18 09:04:00,69.1,69.0,30.18,ENE,63,2.0,3.0,99,0.00,,,0.01,weatherlink.com 1.10,2013-04-18 13:04:00,
2013-04-18 09:19:00,70.3,69.0,30.17,ENE,74,8.0,8.0,96,0.00,,,0.01,weatherlink.com 1.10,2013-04-18 13:19:00,
2013-04-18 09:34:00,71.4,69.0,30.17,East,79,1.0,5.0,91,0.00,,,0.01,weatherlink.com 1.10,2013-04-18 13:34:00,
2013-04-18 09:49:00,71.7,68.0,30.17,East,86,1.0,6.0,87,0.00,,,0.01,weatherlink.com 1.10,2013-04-18 13:49:00,
2013-04-18 10:04:00,72.0,68.0,30.17,SSW,207,0.0,5.0,86,0.00,,,0.01,weatherlink.com 1.10,2013-04-18 14:04:00,
2013-04-18 10:19:00,72.7,68.0,30.18,SE,146,0.0,10.0,84,0.00,,,0.01,weatherlink.com 1.10,2013-04-18 14:19:00,
2013-04-18 10:34:00,72.9,68.0,30.18,ESE,118,3.0,6.0,84,0.00,,,0.01,weatherlink.com 1.10,2013-04-18 14:34:00,
2013-04-18 10:49:00,73.7,68.0,30.18,East,101,3.0,4.0,81,0.00,,,0.01,weatherlink.com 1.10,2013-04-18 14:49:00,
2013-04-18 11:04:00,73.8,67.0,30.18,East,79,8.0,8.0,80,0.00,,,0.01,weatherlink.com 1.10,2013-04-18 15:04:00,
2013-04-18 11:19:00,73.9,67.0,30.19,NE,41,2.0,8.0,79,0.00,,,0.01,weatherlink.com 1.10,2013-04-18 15:19:00,
2013-04-18 11:34:00,74.4,66.0,30.19,ENE,68,1.0,9.0,75,0.00,,,0.01,weatherlink.com 1.10,2013-04-18 15:34:00,
2013-04-18 11:49:00,74.7,66.0,30.18,SW,220,1.0,9.0,75,0.00,,,0.01,weatherlink.com 1.10,2013-04-18 15:49:00,
2013-04-18 12:05:00,74.5,67.0,30.18,East,84,5.0,11.0,76,0.00,,,0.01,weatherlink.com 1.10,2013-04-18 16:05:00,
2013-04-18 12:20:00,74.8,66.0,30.18,SSE,147,1.0,8.0,75,0.00,,,0.01,weatherlink.com 1.10,2013-04-18 16:20:00,
2013-04-18 12:35:00,75.2,66.0,30.17,SW,228,2.0,7.0,74,0.00,,,0.01,weatherlink.com 1.10,2013-04-18 16:35:00,
2013-04-18 12:50:00,75.9,67.0,30.17,NE,47,2.0,7.0,74,0.00,,,0.01,weatherlink.com 1.10,2013-04-18 16:50:00,
2013-04-18 13:05:00,76.0,66.0,30.17,ENE,70,2.0,7.0,72,0.00,,,0.01,weatherlink.com 1.10,2013-04-18 17:05:00,
2013-04-18 13:20:00,76.2,68.0,30.16,ENE,63,8.0,8.0,75,0.00,,,0.01,weatherlink.com 1.10,2013-04-18 17:20:00,
2013-04-18 13:35:00,76.5,67.0,30.16,NW,309,3.0,8.0,73,0.00,,,0.01,weatherlink.com 1.10,2013-04-18 17:35:00,
2013-04-18 13:50:00,76.1,67.0,30.16,East,90,1.0,11.0,73,0.00,,,0.01,weatherlink.com 1.10,2013-04-18 17:50:00,
2013-04-18 14:05:00,76.2,67.0,30.16,East,97,3.0,8.0,73,0.00,,,0.01,weatherlink.com 1.10,2013-04-18 18:05:00,
2013-04-18 14:20:00,76.4,67.0,30.15,ENE,63,8.0,10.0,73,0.00,,,0.01,weatherlink.com 1.10,2013-04-18 18:20:00,
2013-04-18 14:35:00,75.4,67.0,30.15,East,89,4.0,10.0,74,0.00,,,0.01,weatherlink.com 1.10,2013-04-18 18:35:00,
2013-04-18 14:50:00,76.0,68.0,30.14,NE,43,3.0,11.0,75,0.00,,,0.01,weatherlink.com 1.10,2013-04-18 18:50:00,
2013-04-18 15:05:00,75.3,67.0,30.14,East,94,3.0,10.0,75,0.00,,,0.01,weatherlink.com 1.10,2013-04-18 19:05:00,
2013-04-18 15:20:00,75.9,68.0,30.13,North,9,2.0,9.0,76,0.00,,,0.01,weatherlink.com 1.10,2013-04-18 19:20:00,
2013-04-18 15:35:00,76.1,68.0,30.13,East,89,4.0,7.0,76,0.00,,,0.01,weatherlink.com 1.10,2013-04-18 19:35:00,
2013-04-18 15:50:00,75.6,68.0,30.12,East,81,5.0,9.0,76,0.00,,,0.01,weatherlink.com 1.10,2013-04-18 19:50:00,
2013-04-18 16:05:00,75.9,68.0,30.12,SE,146,2.0,8.0,77,0.00,,,0.01,weatherlink.com 1.10,2013-04-18 20:05:00,
2013-04-18 16:20:00,75.2,68.0,30.11,ESE,121,2.0,9.0,79,0.00,,,0.01,weatherlink.com 1.10,2013-04-18 20:20:00,
2013-04-18 16:35:00,74.4,68.0,30.11,ENE,75,5.0,9.0,81,0.00,,,0.01,weatherlink.com 1.10,2013-04-18 20:35:00,
2013-04-18 16:50:00,74.2,68.0,30.10,East,89,1.0,10.0,82,0.00,,,0.01,weatherlink.com 1.10,2013-04-18 20:50:00,
2013-04-18 17:05:00,74.3,69.0,30.10,ESE,115,3.0,8.0,83,0.00,,,0.01,weatherlink.com 1.10,2013-04-18 21:05:00,
2013-04-18 17:20:00,74.5,69.0,30.09,West,270,2.0,8.0,82,0.00,,,0.01,weatherlink.com 1.10,2013-04-18 21:20:00,
2013-04-18 17:35:00,74.0,69.0,30.10,SE,140,0.0,9.0,84,0.00,,,0.01,weatherlink.com 1.10,2013-04-18 21:35:00,
2013-04-18 17:50:00,74.4,69.0,30.09,NE,51,4.0,9.0,83,0.00,,,0.01,weatherlink.com 1.10,2013-04-18 21:50:00,
2013-04-18 18:05:00,74.0,68.0,30.09,ENE,69,7.0,8.0,82,0.00,,,0.01,weatherlink.com 1.10,2013-04-18 22:05:00,
2013-04-18 18:20:00,72.7,68.0,30.09,ESE,109,1.0,5.0,86,0.00,,,0.01,weatherlink.com 1.10,2013-04-18 22:20:00,
2013-04-18 18:35:00,72.2,69.0,30.09,SW,224,0.0,7.0,88,0.00,,,0.01,weatherlink.com 1.10,2013-04-18 22:35:00,
2013-04-18 18:50:00,72.0,68.0,30.09,ENE,75,0.0,5.0,88,0.00,,,0.01,weatherlink.com 1.10,2013-04-18 22:50:00,
2013-04-18 19:05:00,71.7,68.0,30.08,SSW,197,1.0,7.0,88,0.00,,,0.01,weatherlink.com 1.10,2013-04-18 23:05:00,
2013-04-18 19:20:00,71.2,68.0,30.08,ENE,75,1.0,5.0,89,0.00,,,0.01,weatherlink.com 1.10,2013-04-18 23:20:00,
2013-04-18 19:35:00,71.2,68.0,30.08,ENE,69,0.0,5.0,90,0.00,,,0.01,weatherlink.com 1.10,2013-04-18 23:35:00,
2013-04-18 19:50:00,71.0,68.0,30.08,East,85,1.0,5.0,90,0.00,,,0.01,weatherlink.com 1.10,2013-04-18 23:50:00,
2013-04-18 20:05:00,70.9,68.0,30.07,ESE,117,1.0,3.0,91,0.00,,,0.01,weatherlink.com 1.10,2013-04-19 00:05:00,
2013-04-18 20:20:00,70.5,68.0,30.07,ESE,106,0.0,3.0,92,0.00,,,0.01,weatherlink.com 1.10,2013-04-19 00:20:00,
2013-04-18 20:35:00,70.2,68.0,30.08,East,84,2.0,4.0,93,0.00,,,0.01,weatherlink.com 1.10,2013-04-19 00:35:00,
2013-04-18 20:50:00,70.0,68.0,30.07,East,89,2.0,3.0,93,0.00,,,0.01,weatherlink.com 1.10,2013-04-19 00:50:00,
2013-04-18 21:05:00,69.7,68.0,30.07,ENE,72,0.0,3.0,93,0.00,,,0.01,weatherlink.com 1.10,2013-04-19 01:05:00,
2013-04-18 21:20:00,69.6,68.0,30.08,ESE,103,0.0,2.0,94,0.00,,,0.01,weatherlink.com 1.10,2013-04-19 01:20:00,
2013-04-18 21:35:00,69.7,68.0,30.08,ENE,78,1.0,4.0,94,0.00,,,0.01,weatherlink.com 1.10,2013-04-19 01:35:00,
2013-04-18 21:50:00,69.7,68.0,30.08,ESE,105,0.0,4.0,94,0.00,,,0.01,weatherlink.com 1.10,2013-04-19 01:50:00,
2013-04-18 22:05:00,69.8,68.0,30.08,East,96,1.0,7.0,94,0.00,,,0.01,weatherlink.com 1.10,2013-04-19 02:05:00,
2013-04-18 22:20:00,70.0,68.0,30.08,WNW,288,0.0,5.0,94,0.00,,,0.01,weatherlink.com 1.10,2013-04-19 02:20:00,
2013-04-18 22:35:00,69.9,68.0,30.07,ESE,103,3.0,5.0,94,0.00,,,0.01,weatherlink.com 1.10,2013-04-19 02:35:00,
2013-04-18 22:50:00,70.0,69.0,30.07,ESE,111,0.0,6.0,95,0.00,,,0.01,weatherlink.com 1.10,2013-04-19 02:50:00,
2013-04-18 23:05:00,70.1,69.0,30.07,ENE,60,4.0,5.0,95,0.00,,,0.01,weatherlink.com 1.10,2013-04-19 03:05:00,
2013-04-18 23:20:00,70.3,69.0,30.06,SSW,203,3.0,5.0,95,0.00,,,0.01,weatherlink.com 1.10,2013-04-19 03:20:00,
2013-04-18 23:35:00,70.4,69.0,30.06,SSE,165,1.0,3.0,95,0.00,,,0.01,weatherlink.com 1.10,2013-04-19 03:35:00,
2013-04-18 23:50:00,70.5,69.0,30.06,SE,128,0.0,3.0,96,0.00,,,0.01,weatherlink.com 1.10,2013-04-19 03:50:00,